Location: Hillern
(53.0557°N, 9.8577°E)
Time: 16:53:11
(UTC+00:00)

Cosmos 1500 Rocket - Pass Details

Date: 19 May 2025
Orbit: 598 x 623 km, 82.5° (Epoch: 16 June)

Event Time Altitude Azimuth Distance (km) Brightness Sun altitude
Rises 22:45:08 0° 347° (NNW) 2,879 8.8 -16.6°
Reaches altitude 10° 22:47:21 10° 346° (NNW) 1,974 7.5 -16.7°
Maximum altitude 22:51:43 74° 262° (W) 644 3.6 -16.8°
Enters shadow 22:53:38 33° 184° (S) 1,048 4.2 -16.8°
